Flag for Brazil Weather past 2 weeks in Maceió, Alagoas, Brazil

Now
77 °F

Scattered clouds.


Feels Like: 79 °F
Forecast: 69 / 78 °F
Wind: 13 mph from Southeast

Location: Maceio Aeroporto

Current Time: Aug 23, 2014 at 3:27:26 PM

Latest Report: Aug 23, 2014 at 3:00 PM


Visibility: N/A

Pressure: 30.01 "Hg

Humidity: 61%

Dew point: 63 °F

Location of MaceióLocation

Historic Weather in Maceió — Graph

°F

Maceió temperature yesterday

Maximum temperature yesterday: 79 °F (at 9:00 AM)
Minimum temperature yesterday: 66 °F (at 5:00 AM)
Average temperature yesterday: 72 °F

Past Weeks' High & Low Weather Summary

 TemperatureHumidityPressure
High82 °F (Aug 13, 1:00 PM)100% (Aug 9, 4:00 AM)30.15 "Hg (Aug 9, 4:00 AM)
Low61 °F (Aug 9, 4:00 AM)45% (Aug 14, 2:00 PM)29.62 "Hg (Aug 18, 12:00 AM)
Average71 °F82%30.07 "Hg
* Reported Aug 8 2:00 PM — Aug 23 2:00 PM, Maceió, Weather by CustomWeather, © 2014

Note: Actual official high and low records may vary slightly from our data, if they occured in-between our weather recording intervals... More about our weather records

Advertising

Maceió weather history for previous 24 hours

 ConditionsComfort  
Time TempWeatherWind HumidityBarometerVisibility
2:00 PM
Aug 23
77 °FScattered clouds.12 mph57%30.01 "HgN/A
1:00 PM79 °FScattered clouds.13 mph54%30.04 "HgN/A
12:00 PM79 °FScattered clouds.14 mph51%30.07 "HgN/A
11:00 AM77 °FScattered clouds.14 mph57%30.07 "HgN/A
10:00 AM77 °FScattered clouds.14 mph61%30.09 "HgN/A
9:00 AM75 °FScattered clouds.13 mph65%30.09 "HgN/A
8:00 AM75 °FScattered clouds.7 mph74%30.07 "HgN/A
7:00 AM68 °FScattered clouds.5 mph94%30.07 "HgN/A
6:00 AM64 °FScattered clouds.2 mph100%30.04 "HgN/A
5:00 AM64 °FPassing clouds.3 mph100%30.04 "HgN/A
4:00 AM64 °FPassing clouds.3 mph100%30.01 "HgN/A
3:00 AM64 °FPassing clouds.No wind100%30.01 "HgN/A
2:00 AM64 °FClear.No wind100%30.04 "Hg10 mi
1:00 AM64 °FPassing clouds.2 mph100%30.04 "HgN/A
12:00 AM66 °FPassing clouds.2 mph100%30.07 "HgN/A
11:00 PM
Aug 22
66 °FPassing clouds.2 mph100%30.07 "HgN/A
10:00 PM68 °FPassing clouds.3 mph94%30.09 "HgN/A
9:00 PM68 °FPassing clouds.2 mph94%30.09 "HgN/A
8:00 PM68 °FPassing clouds.3 mph94%30.07 "HgN/A
7:00 PM72 °FClear.5 mph78%30.07 "Hg10 mi
6:00 PM72 °FClear.6 mph78%30.04 "Hg10 mi
5:00 PM75 °FPassing clouds.9 mph65%30.04 "HgN/A
4:00 PM77 °FScattered clouds.12 mph65%30.04 "HgN/A
3:00 PM73 °FScattered clouds.9 mph78%30.04 "HgN/A
Weather by CustomWeather, © 2014

See weather overviewHow to use our weather pages